Regional Weather Roundup
Issued by NWS Glasgow, MT

Home | Current Version | Previous Version | Text Only | Print | Product List | Glossary On
Versions: 1 2 3 4 5 6 7 8 9 10 11 12 13 14 15 16 17 18 19 20 21 22 23 24 25 26 27 28 29 30 31 32 33 34 35 36 37 38 39 40 41 42 43 44 45 46 47 48 49
000
ASUS45 KGGW 281915
RWRGGW
HOURLY REGIONAL WEATHER ROUNDUP FOR NORTHEAST MONTANA
NATIONAL WEATHER SERVICE GLASGOW MONTANA
100 PM MDT FRI AUG 28 2015

NOTE: "FAIR" INDICATES FEW OR NO CLOUDS BELOW 12,000 FEET WITH NO
SIGNIFICANT WEATHER AND/OR OBSTRUCTIONS TO VISISBILITY.

NORTHEAST MONTANA


CITY           SKY/WX    TMP DP  RH WIND       PRES   REMARKS
GLASGOW        MOSUNNY   86  42  21 W15       29.92F HAZE
PLENTYWOOD       N/A     86  39  19 W5G17       N/A
WOLF POINT     CLOUDY    87  46  24 W14G23    29.91F HAZE
JORDAN           N/A    N/A N/A N/A MISG        N/A
WINNETT          N/A     88  30  12 SW5         N/A
SIDNEY         MOSUNNY   84  61  45 S10       29.90F
GLENDIVE       SUNNY     84  54  34 S8        29.95F
MALTA            N/A     80  46  30 W7          N/A
OPHEIM           N/A     75  39  27 W13       29.67

FORT PECK REPORTS


CITY           SKY/WX    TMP DP  RH WIND       PRES   REMARKS
FORT PECK        N/A     77  59  53 S7          N/A
THE PINES        N/A     82  46  28 SW6         N/A

SOUTHEAST MONTANA


CITY           SKY/WX    TMP DP  RH WIND       PRES   REMARKS
BILLINGS       PTSUNNY   83  44  25 SW14      30.09F
MILES CITY     CLOUDY    86  42  21 NW13G21   29.98F HAZE
BAKER          MOSUNNY   83  49  30 W8        30.00F
LIVINGSTON     SUNNY     86  41  20 SW14      30.13F

CENTRAL MONTANA


CITY           SKY/WX    TMP DP  RH WIND       PRES   REMARKS
HAVRE          CLOUDY    82  42  24 SW16      29.95F HAZE
LEWISTOWN      MOSUNNY   84  33  16 W8        30.09F
GREAT FALLS    PTSUNNY   87  29  12 SW16      30.02F
CUT BANK       CLOUDY    79  34  19 SW10      30.00F HAZE
HELENA         PTSUNNY   77  49  37 NW3       30.07F SMOKE
BUTTE          CLOUDY    76  39  26 CALM      30.19F HAZE
BOZEMAN        SUNNY     77  48  35 CALM      30.14F

WESTERN MONTANA


CITY           SKY/WX    TMP DP  RH WIND       PRES   REMARKS
MISSOULA       CLOUDY    73  42  32 S3        30.01F HAZE
KALISPELL      NOT AVBL

NORTH DAKOTA


CITY           SKY/WX    TMP DP  RH WIND       PRES   REMARKS
WILLISTON      SUNNY     83  61  47 SW9       29.89F
DICKINSON      SUNNY     88  53  30 NW5       29.92F
MINOT          SUNNY     84  59  42 NW7       29.86F
BISMARCK       SUNNY     85  66  53 S9        29.89F

SOUTHERN SASKATCHEWAN


CITY           SKY/WX    TMP DP  RH WIND       PRES   REMARKS
REGINA         PTSUNNY   77  63  61 E6        29.87F
MOOSE JAW      PTSUNNY   77  61  57 SE5       29.87F SMOKE
ESTEVAN        CLOUDY    82  57  42 W3        29.87F SMOKE
SWIFT CURRENT  SUNNY     77  54  44 W16       29.89S HAZE




USA.gov is the U.S. government's official web portal to all federal, state and local government web resources and services.